• în Republica Moldova
  • Lista ţărilor
  • Pe 7 zile
  • Temperatura apei
  • Hartă satelitară
  • Meteo pe hartă
  • Widget-uri
  • user-avatar
    Intrare

    Meteo pe oră la Albany

    Astăzi, 21 Iulie, Vineri

    Timp Temperatura Precipitaţii Vânt Presiune Umiditate
    00:00 +11°C° 0,1 mm 8 m/s 752 mmHg 78%
    01:00 +11°C° 0,1 mm 8 m/s 752 mmHg 79%
    02:00 +11°C° 0,1 mm 8 m/s 752 mmHg 79%
    03:00 +11°C° 0,1 mm 8 m/s 752 mmHg 80%
    04:00 +10°C° 0,1 mm 8 m/s 752 mmHg 81%
    05:00 +10°C° 0,1 mm 7 m/s 752 mmHg 82%
    06:00 +11°C° 0,2 mm 8 m/s 752 mmHg 81%
    07:00 +11°C° 0,2 mm 8 m/s 752 mmHg 80%
    08:00 +11°C° 0,2 mm 8 m/s 752 mmHg 78%
    09:00 +13°C° 0,1 mm 9 m/s 752 mmHg 74%
    10:00 +14°C° 0,1 mm 10 m/s 752 mmHg 69%
    11:00 +16°C° 0,1 mm 10 m/s 752 mmHg 64%
    12:00 +16°C° 1,5 mm 11 m/s 751 mmHg 69%
    13:00 +14°C° 1,5 mm 11 m/s 751 mmHg 73%
    14:00 +14°C° 1,5 mm 12 m/s 751 mmHg 77%
    15:00 +13°C° 1,1 mm 11 m/s 751 mmHg 78%
    16:00 +13°C° 1,1 mm 10 m/s 752 mmHg 79%
    17:00 +12°C° 1,1 mm 10 m/s 752 mmHg 80%
    18:00 +11°C° 0,1 mm 10 m/s 753 mmHg 79%
    19:00 +11°C° 0,1 mm 10 m/s 753 mmHg 78%
    20:00 +10°C° 0,1 mm 9 m/s 754 mmHg 77%
    21:00 +10°C° 0 mm 9 m/s 754 mmHg 77%
    22:00 +10°C° 0 mm 9 m/s 755 mmHg 77%
    23:00 +10°C° 0 mm 9 m/s 755 mmHg 77%

    Mâine, 22 Iulie, Sâmbătă

    Timp Temperatura Precipitaţii Vânt Presiune Umiditate
    00:00 +10°C° 0 mm 8 m/s 755 mmHg 77%
    01:00 +10°C° 0 mm 8 m/s 755 mmHg 77%
    02:00 +10°C° 0 mm 8 m/s 756 mmHg 77%
    03:00 +10°C° 0,1 mm 8 m/s 756 mmHg 79%
    04:00 +9°C° 0,1 mm 7 m/s 756 mmHg 80%
    05:00 +9°C° 0,1 mm 7 m/s 756 mmHg 81%
    06:00 +9°C° 0,1 mm 7 m/s 756 mmHg 82%
    07:00 +9°C° 0,1 mm 7 m/s 757 mmHg 82%
    08:00 +9°C° 0,1 mm 7 m/s 757 mmHg 83%
    09:00 +10°C° 0,1 mm 7 m/s 757 mmHg 78%
    10:00 +11°C° 0,1 mm 7 m/s 757 mmHg 74%
    11:00 +14°C° 0,1 mm 7 m/s 757 mmHg 70%
    12:00 +14°C° 0,2 mm 7 m/s 757 mmHg 68%
    13:00 +14°C° 0,2 mm 7 m/s 757 mmHg 66%
    14:00 +15°C° 0,2 mm 7 m/s 756 mmHg 64%
    15:00 +14°C° 0,2 mm 7 m/s 756 mmHg 68%
    16:00 +13°C° 0,2 mm 6 m/s 757 mmHg 71%
    17:00 +13°C° 0,2 mm 6 m/s 757 mmHg 74%
    18:00 +11°C° 0,2 mm 6 m/s 757 mmHg 77%
    19:00 +10°C° 0,2 mm 6 m/s 758 mmHg 79%
    20:00 +10°C° 0,2 mm 6 m/s 758 mmHg 81%
    21:00 +9°C° 0,1 mm 6 m/s 758 mmHg 82%
    22:00 +9°C° 0,1 mm 6 m/s 758 mmHg 83%
    23:00 +9°C° 0,1 mm 6 m/s 758 mmHg 84%

    Poimâine, 23 Iulie, Duminică

    Timp Temperatura Precipitaţii Vânt Presiune Umiditate
    00:00 +9°C° 0,1 mm 6 m/s 758 mmHg 84%
    01:00 +9°C° 0,1 mm 6 m/s 757 mmHg 84%
    02:00 +9°C° 0,1 mm 6 m/s 757 mmHg 85%
    03:00 +9°C° 0 mm 6 m/s 757 mmHg 85%
    04:00 +9°C° 0 mm 6 m/s 756 mmHg 84%
    05:00 +9°C° 0 mm 7 m/s 756 mmHg 84%
    06:00 +10°C° 0,1 mm 7 m/s 756 mmHg 83%
    07:00 +10°C° 0,1 mm 7 m/s 756 mmHg 82%
    08:00 +11°C° 0,1 mm 7 m/s 756 mmHg 80%
    09:00 +12°C° 0,6 mm 8 m/s 756 mmHg 78%
    10:00 +13°C° 0,6 mm 8 m/s 756 mmHg 76%
    11:00 +15°C° 0,6 mm 9 m/s 756 mmHg 74%
    12:00 +13°C° 0,9 mm 9 m/s 755 mmHg 77%
    13:00 +13°C° 0,9 mm 8 m/s 755 mmHg 80%
    14:00 +12°C° 0,9 mm 8 m/s 754 mmHg 83%
    15:00 +12°C° 0,1 mm 8 m/s 755 mmHg 79%
    16:00 +12°C° 0,1 mm 8 m/s 755 mmHg 75%
    17:00 +12°C° 0,1 mm 8 m/s 755 mmHg 72%
    18:00 +11°C° 0,1 mm 7 m/s 755 mmHg 74%
    19:00 +11°C° 0,1 mm 7 m/s 756 mmHg 76%
    20:00 +10°C° 0,1 mm 7 m/s 756 mmHg 78%
    21:00 +10°C° 0,1 mm 7 m/s 757 mmHg 80%
    22:00 +9°C° 0,1 mm 6 m/s 757 mmHg 82%
    23:00 +9°C° 0,1 mm 6 m/s 757 mmHg 83%

    24 Iulie, Luni

    Timp Temperatura Precipitaţii Vânt Presiune Umiditate
    00:00 +9°C° 0 mm 6 m/s 757 mmHg 84%
    01:00 +9°C° 0 mm 6 m/s 757 mmHg 85%
    02:00 +9°C° 0 mm 6 m/s 757 mmHg 86%
    03:00 +9°C° 0 mm 5 m/s 758 mmHg 86%
    04:00 +9°C° 0 mm 5 m/s 758 mmHg 87%
    05:00 +9°C° 0 mm 5 m/s 758 mmHg 88%
    06:00 +9°C° 0,1 mm 5 m/s 758 mmHg 89%
    07:00 +9°C° 0,1 mm 5 m/s 759 mmHg 90%
    08:00 +9°C° 0,1 mm 5 m/s 759 mmHg 91%
    09:00 +12°C° 0,2 mm 5 m/s 759 mmHg 84%
    10:00 +13°C° 0,2 mm 6 m/s 759 mmHg 77%
    11:00 +14°C° 0,2 mm 6 m/s 760 mmHg 70%
    12:00 +14°C° 0,1 mm 7 m/s 759 mmHg 66%
    13:00 +15°C° 0,1 mm 7 m/s 759 mmHg 62%
    14:00 +15°C° 0,1 mm 7 m/s 758 mmHg 58%
    15:00 +15°C° 0 mm 7 m/s 759 mmHg 61%
    16:00 +14°C° 0 mm 6 m/s 759 mmHg 64%
    17:00 +13°C° 0 mm 6 m/s 759 mmHg 67%
    18:00 +11°C° 0,1 mm 6 m/s 760 mmHg 71%
    19:00 +11°C° 0,1 mm 6 m/s 760 mmHg 75%
    20:00 +10°C° 0,1 mm 6 m/s 760 mmHg 79%
    21:00 +10°C° 0 mm 6 m/s 760 mmHg 81%
    22:00 +9°C° 0 mm 6 m/s 761 mmHg 83%
    23:00 +9°C° 0 mm 6 m/s 761 mmHg 85%

    25 Iulie, Marţi

    Timp Temperatura Precipitaţii Vânt Presiune Umiditate
    00:00 +9°C° 0 mm 6 m/s 761 mmHg 86%
    01:00 +9°C° 0 mm 6 m/s 761 mmHg 87%
    02:00 +9°C° 0 mm 6 m/s 761 mmHg 88%
    03:00 +8°C° 0 mm 6 m/s 761 mmHg 88%
    04:00 +8°C° 0 mm 5 m/s 761 mmHg 89%
    05:00 +8°C° 0 mm 5 m/s 761 mmHg 89%
    06:00 +8°C° 0 mm 5 m/s 761 mmHg 88%
    07:00 +8°C° 0 mm 5 m/s 762 mmHg 87%
    08:00 +8°C° 0 mm 5 m/s 762 mmHg 86%
    09:00 +10°C° 0 mm 5 m/s 762 mmHg 78%
    10:00 +13°C° 0 mm 5 m/s 762 mmHg 70%
    11:00 +15°C° 0 mm 5 m/s 762 mmHg 62%
    12:00 +16°C° 0 mm 5 m/s 762 mmHg 60%
    13:00 +17°C° 0 mm 4 m/s 761 mmHg 57%
    14:00 +18°C° 0 mm 4 m/s 761 mmHg 55%
    15:00 +17°C° 0 mm 4 m/s 761 mmHg 60%
    16:00 +16°C° 0 mm 3 m/s 761 mmHg 64%
    17:00 +16°C° 0 mm 3 m/s 761 mmHg 69%
    18:00 +14°C° 0 mm 4 m/s 761 mmHg 72%
    19:00 +13°C° 0 mm 4 m/s 761 mmHg 76%
    20:00 +12°C° 0 mm 5 m/s 761 mmHg 80%
    21:00 +12°C° 0 mm 5 m/s 761 mmHg 81%
    22:00 +10°C° 0 mm 5 m/s 760 mmHg 82%
    23:00 +10°C° 0 mm 5 m/s 760 mmHg 84%

    26 Iulie, Miercuri

    Timp Temperatura Precipitaţii Vânt Presiune Umiditate
    00:00 +10°C° 0 mm 5 m/s 760 mmHg 82%
    01:00 +10°C° 0 mm 5 m/s 759 mmHg 81%
    02:00 +10°C° 0 mm 5 m/s 759 mmHg 79%
    03:00 +11°C° 0,2 mm 6 m/s 759 mmHg 80%
    04:00 +11°C° 0,2 mm 6 m/s 759 mmHg 81%
    05:00 +11°C° 0,2 mm 6 m/s 758 mmHg 81%
    06:00 +11°C° 0 mm 6 m/s 758 mmHg 82%
    07:00 +11°C° 0 mm 7 m/s 758 mmHg 82%
    08:00 +11°C° 0 mm 7 m/s 758 mmHg 83%
    09:00 +14°C° 0 mm 7 m/s 758 mmHg 78%
    10:00 +16°C° 0 mm 7 m/s 758 mmHg 73%
    11:00 +17°C° 0 mm 7 m/s 758 mmHg 68%
    12:00 +18°C° 0 mm 7 m/s 757 mmHg 67%
    13:00 +18°C° 0 mm 7 m/s 756 mmHg 66%
    14:00 +20°C° 0 mm 7 m/s 756 mmHg 64%
    15:00 +18°C° 0,3 mm 7 m/s 756 mmHg 70%
    16:00 +17°C° 0,3 mm 7 m/s 756 mmHg 75%
    17:00 +16°C° 0,3 mm 6 m/s 756 mmHg 80%
    18:00 +16°C° 1,1 mm 7 m/s 756 mmHg 83%
    19:00 +15°C° 1,1 mm 7 m/s 756 mmHg 86%
    20:00 +14°C° 1,1 mm 7 m/s 757 mmHg 89%
    21:00 +14°C° 0,2 mm 7 m/s 756 mmHg 90%
    22:00 +14°C° 0,2 mm 7 m/s 756 mmHg 90%
    23:00 +14°C° 0,2 mm 7 m/s 756 mmHg 90%
    Arată mai mult